カタログに戻る

TITAN 3C TRANSTAGE DEB

運用中HEO
NORAD 27793·DEBRIS·🇺🇸 United States

打ち上げ Dec 21, 1965 から Cape Canaveral Space Force Station

Loading…

次のパス (今後24時間)

TLE

最新Source: Space-Track

元期: Sep 11, 2026, 13:00 UTC

1 27793U 65108BH  26254.54194269  .00002884  00000-0  92711-2 0  9991
2 27793  26.5546   6.0239 6522003 147.4576 278.9568  3.14060135139113

AllMySatでTITAN 3C TRANSTAGE DEBをリアルタイム追跡

Download on the App Store